Temp
15 13 14 15 16 16 15 14 14 14 16 15 13 12 13 12 10 10 8 7 7 6 6 5 5 5 5 5 5 4 4 5 6 6 7 6 5 5 5 5 5 7 8 9
15 15 16 16 16 16 16 15 14 14 16 14 13 13 11 11 11 9 8 7 7 6 5 5 5 4 4 4 4 4 4 4 4 5 4 4 4 4 4 4 5 6 7 8
15 17 17 17 15 15 15 15 14 14 13 13 12 13 14 12 11 10 9 8 7 6 6 5 4 4 4 3 3 3 3 3 4 4 5 4 4 4 4 4 3 3 4 5
17 17 16 17 16 15 14 15 15 13 12 12 13 13 13 13 12 10 8 7 6 6 5 5 4 4 4 3 3 3 3 3 3 4 4 2 0 0 -0 1 1 2 3 3
17 16 16 16 17 16 15 14 13 13 12 12 13 12 13 12 13 12 9 7 6 5 4 4 4 4 4 3 3 3 2 3 3 3 2 2 1 1 1 1 2 2 2 2
16 15 16 16 15 15 14 14 13 11 10 12 14 12 13 13 15 15 12 7 6 5 4 4 4 4 3 3 3 3 2 2 2 2 2 1 1 1 1 1 1 0 1 1
13 16 16 15 15 14 12 11 11 12 11 13 12 12 13 14 14 13 13 9 6 5 4 3 3 3 3 3 2 2 2 1 1 1 1 1 0 -0 -0 -1 -1 -0 -1 -1
12 14 16 15 15 15 13 12 11 14 12 12 12 12 14 12 11 11 11 9 7 5 4 3 3 3 3 2 2 2 1 1 1 1 1 0 0 0 -0 -0 -1 -1 -1 -1
13 14 15 15 15 14 14 12 13 12 11 10 11 12 13 11 11 10 10 9 7 6 5 4 3 3 3 2 2 2 1 1 1 0 0 -0 -0 -0 -1 -1 -1 -1 -1 -1
14 12 15 15 14 14 14 13 13 10 13 12 11 11 12 14 15 12 11 9 7 6 5 4 3 3 3 2 2 1 1 1 0 -0 -1 -1 -1 -1 -1 -1 -1 -1 -1 -2
14 12 14 14 13 14 12 12 12 11 10 11 10 11 12 14 14 15 12 10 9 7 6 4 3 3 3 2 1 1 0 0 -0 -1 -1 -1 -2 -2 -2 -2 -2 -2 -2 -2
14 11 10 12 13 12 13 13 11 12 13 11 10 11 13 12 13 13 9 8 8 7 6 4 2 2 1 1 1 0 -0 -0 -1 -1 -2 -2 -2 -2 -3 -4 -5 -4 -2 -2
12 11 10 12 12 13 13 13 13 13 12 12 11 12 12 9 10 9 8 8 7 7 6 2 1 0 -0 0 0 -0 -1 -1 -2 -2 -2 -3 -4 -5 -4 -5 -4 -3 -3 -3
13 10 12 12 13 12 12 12 12 13 11 12 12 13 14 14 13 9 8 7 6 5 5 2 -0 -0 -0 -0 -0 -1 -2 -2 -2 -3 -4 -5 -6 -4 -5 -4 -4 -4 -4 -4
12 9 9 11 12 12 12 12 12 11 12 11 13 11 13 12 9 8 7 6 5 4 4 3 1 -1 -1 -1 -1 -2 -2 -3 -3 -4 -4 -5 -6 -6 -5 -6 -5 -4 -4 -4
10 10 10 9 11 11 11 12 12 11 11 11 12 11 9 7 8 7 6 4 3 3 3 3 1 -1 -1 -2 -3 -3 -3 -4 -4 -5 -6 -6 -6 -6 -7 -7 -6 -5 -5 -5
10 10 10 12 11 11 11 12 12 10 10 10 9 10 8 7 7 6 3 2 1 1 0 -1 -1 -1 -3 -3 -3 -4 -4 -5 -6 -6 -6 -6 -7 -7 -7 -7 -6 -6 -6 -6
10 10 10 10 11 11 13 12 12 10 10 9 7 7 6 6 5 1 1 0 -1 -1 -3 -3 -3 -4 -4 -4 -4 -5 -5 -6 -6 -6 -6 -7 -7 -8 -7 -6 -6 -6 -7 -7
11 11 10 10 11 13 13 12 11 11 10 6 6 6 6 4 4 1 -0 -1 -2 -4 -5 -5 -5 -5 -5 -5 -5 -6 -6 -6 -6 -7 -7 -8 -8 -8 -7 -7 -7 -7 -7 -8
8 10 10 9 10 11 12 9 9 10 9 6 5 5 3 3 5 2 -2 -2 -4 -5 -5 -5 -6 -6 -6 -6 -6 -6 -6 -7 -7 -8 -8 -8 -7 -7 -7 -7 -8 -8 -8 -8
7 8 9 10 11 10 10 9 9 10 9 5 4 3 2 2 2 -1 -2 -4 -5 -5 -6 -6 -6 -7 -7 -7 -7 -7 -7 -8 -8 -9 -8 -8 -8 -8 -8 -8 -8 -9 -9 -9
9 8 8 9 10 10 8 8 10 6 3 2 1 -0 -0 0 0 -2 -3 -5 -5 -6 -6 -7 -7 -7 -8 -8 -8 -8 -8 -9 -9 -8 -8 -9 -9 -9 -9 -9 -9 -9 -9 -10
10 11 9 8 9 6 3 4 1 1 1 -1 -1 -1 -1 -1 -1 -3 -5 -7 -7 -7 -7 -7 -7 -8 -8 -8 -8 -8 -8 -8 -9 -9 -9 -9 -10 -10 -10 -10 -10 -10 -10 -10
11 9 8 8 6 5 2 -0 -1 -1 -1 -2 -3 -3 -3 -3 -4 -6 -8 -7 -8 -8 -8 -8 -8 -8 -8 -8 -8 -8 -9 -9 -9 -10 -10 -10 -10 -10 -10 -10 -11 -11 -10 -10
9 8 8 7 6 1 -0 -1 -2 -3 -3 -4 -5 -5 -6 -5 -7 -7 -8 -8 -8 -8 -8 -8 -9 -8 -8 -9 -9 -9 -10 -10 -10 -10 -11 -11 -11 -11 -11 -11 -11 -11 -11 -10
7 7 7 8 1 2 -0 -2 -3 -4 -4 -5 -6 -7 -8 -7 -8 -8 -8 -8 -8 -9 -9 -9 -9 -9 -9 -10 -10 -10 -10 -11 -11 -11 -11 -12 -12 -12 -12 -11 -11 -10 -11 -10
Height
834 849 853 847 844 843 845 849 849 840 831 835 837 836 826 826 830 835 841 843 844 844 844 843 841 839 837 834 828 823 818 813 809 805 803 803 804 802 801 800 798 796 794 793
844 850 843 841 841 842 843 844 845 842 832 836 835 829 830 830 829 832 838 842 843 843 844 843 841 839 837 835 832 828 823 818 814 810 809 808 807 806 804 803 801 798 795 793
847 841 838 840 844 847 845 843 845 847 841 835 836 831 823 827 830 831 834 837 839 840 841 841 840 838 837 835 833 830 827 823 819 816 812 811 810 808 807 805 804 803 801 797
844 839 841 841 842 846 850 838 841 845 847 850 838 845 830 827 830 835 835 837 837 837 837 837 838 838 837 836 835 833 830 827 824 820 817 815 814 815 815 812 809 806 804 802
844 843 844 844 841 842 845 840 844 841 846 849 842 849 830 829 823 823 829 832 833 832 833 834 835 836 837 837 836 834 832 829 827 824 822 821 819 818 817 815 812 809 806 804
843 842 843 843 841 841 841 839 843 850 855 856 839 846 834 826 816 812 818 828 829 831 831 832 835 836 836 836 836 835 834 832 830 827 825 823 822 821 819 817 816 813 811 808
853 843 842 842 846 843 848 853 860 857 858 849 843 845 829 816 815 815 814 820 825 827 829 830 832 834 836 836 836 836 835 834 833 831 829 827 827 825 822 821 820 818 816 813
871 861 845 844 846 849 852 856 869 858 863 856 847 845 821 818 819 817 817 817 822 825 826 828 829 831 833 834 834 834 834 834 834 833 832 831 829 827 825 823 822 820 819 818
872 859 844 844 845 848 848 858 853 862 864 873 852 833 815 819 821 820 819 819 821 819 822 825 827 827 829 831 832 832 832 832 833 833 832 832 831 830 828 826 824 822 821 820
861 870 846 844 846 848 847 851 858 870 855 855 848 841 827 812 809 812 816 817 816 818 819 820 822 823 824 825 827 830 831 831 832 833 833 833 833 831 831 828 826 824 823 822
858 867 853 846 849 849 854 855 855 862 868 860 866 840 813 809 806 806 808 812 813 814 814 814 815 818 820 823 825 827 830 833 833 833 834 834 835 831 833 830 829 826 824 821
857 869 874 854 846 846 844 846 853 857 851 853 863 830 804 807 807 805 814 815 813 811 809 807 808 812 818 821 823 827 830 832 833 833 833 833 833 832 832 831 830 828 826 823
856 865 871 853 850 845 843 841 840 843 846 842 846 819 807 812 813 814 815 815 814 812 809 808 809 810 815 819 822 825 828 831 832 832 831 832 832 833 833 831 832 829 827 824
850 862 854 854 844 844 846 838 836 834 847 830 818 806 804 800 803 814 815 816 817 815 813 810 810 810 814 820 824 826 827 830 831 831 831 832 832 832 832 832 831 829 827 825
853 864 860 845 839 838 834 829 828 834 824 830 795 811 794 802 811 815 818 818 816 816 814 812 814 816 818 821 826 827 829 831 832 832 831 832 832 831 831 831 831 829 827 825
853 853 850 850 841 836 831 821 818 819 817 813 807 801 808 815 814 816 819 820 819 818 814 808 807 812 814 818 823 826 829 831 831 831 831 831 831 830 830 829 829 828 826 824
851 849 851 827 830 833 821 800 800 808 810 805 814 808 815 818 815 816 822 823 823 821 820 817 815 815 819 822 825 828 829 831 832 832 831 831 830 829 828 828 828 826 825 823
840 845 848 835 830 822 791 793 793 801 802 807 813 816 818 820 820 826 828 829 829 825 824 823 822 824 824 825 826 828 829 830 831 831 830 830 829 828 827 826 826 824 823 822
825 830 836 833 824 798 786 784 790 795 799 812 813 815 816 820 820 827 828 830 828 829 829 828 825 825 827 828 828 829 828 828 830 831 830 829 828 827 826 825 824 822 821 819
831 826 827 829 819 805 786 795 794 794 798 811 815 817 820 821 812 819 828 828 830 829 828 828 827 827 829 830 829 830 830 828 829 829 829 828 827 826 824 823 822 820 819 817
834 831 819 809 797 794 791 796 795 798 801 814 816 820 822 820 820 827 830 829 830 831 830 828 828 828 829 828 829 829 830 828 828 828 828 826 825 823 822 821 820 818 817 816
815 822 820 810 800 792 797 796 796 805 811 817 821 824 824 824 821 825 827 829 830 831 830 828 829 831 831 831 830 829 830 828 828 827 826 824 823 821 820 819 818 817 816 814
804 792 798 805 796 804 808 806 812 814 813 822 825 825 822 822 820 824 828 829 829 831 832 831 831 831 831 831 831 829 829 827 826 825 824 822 821 819 818 817 816 815 814 813
788 790 796 795 798 799 807 815 814 812 814 819 826 827 824 822 821 825 829 829 829 831 831 831 829 830 830 830 830 828 827 825 824 823 821 820 819 818 816 816 815 814 812 810
788 788 786 788 792 806 813 815 817 818 820 823 826 827 825 825 827 828 830 829 830 831 832 831 830 829 828 829 828 826 825 823 822 821 819 818 817 816 815 813 812 811 809 807
791 788 787 780 805 805 814 817 820 823 822 822 825 827 827 827 829 830 830 829 829 830 830 829 829 828 826 826 825 824 823 821 820 819 817 815 815 814 812 811 808 808 806 804
Wind_Speed
4 7 2 3 1 2 4 3 4 4 3 6 3 8 12 7 7 7 7 7 5 4 4 1 4 7 11 16 21 24 25 23 20 21 17 13 20 21 20 20 20 18 15 15
6 2 3 4 2 2 3 2 4 6 3 1 6 10 3 3 2 6 8 7 6 4 4 1 3 6 9 13 17 20 22 23 21 16 13 11 10 18 20 19 19 18 16 15
4 2 2 1 3 6 4 2 3 5 6 2 7 5 2 2 2 1 3 5 5 7 6 3 1 4 7 11 14 16 19 20 20 18 14 12 12 16 20 23 23 24 21 18
1 2 3 2 1 2 4 3 4 6 3 3 4 4 4 2 4 5 7 7 7 7 5 5 3 1 4 6 9 12 14 17 19 16 18 19 17 13 14 15 17 21 22 23
3 3 3 2 2 2 7 4 5 2 2 3 3 2 5 2 4 6 9 9 9 9 7 7 7 4 1 3 7 9 11 14 15 16 18 17 18 16 15 15 17 19 20 20
1 1 1 2 3 2 6 4 4 3 3 2 2 3 5 3 4 1 1 6 9 8 7 8 8 6 3 1 2 5 8 12 13 14 15 16 17 18 19 19 20 20 21 21
6 1 1 1 4 4 8 5 4 5 4 4 3 1 8 3 1 1 4 7 8 7 7 7 10 10 7 4 2 3 5 9 11 13 15 15 15 15 17 18 19 19 21 22
4 7 2 3 1 2 3 3 3 4 3 5 3 5 4 4 5 4 4 6 5 7 7 7 13 14 11 8 6 4 4 5 7 9 11 12 13 14 15 15 16 18 17 18
4 5 1 1 1 2 2 2 3 1 1 1 3 7 4 4 6 5 6 3 8 9 7 8 14 17 15 12 9 7 6 5 5 6 8 10 11 12 13 14 15 16 16 15
2 5 2 1 1 2 1 2 1 2 3 5 5 6 5 4 3 4 5 8 9 7 7 7 15 19 18 15 12 9 7 7 6 5 5 7 9 12 12 13 14 14 14 15
4 3 5 1 3 3 1 1 1 2 4 3 4 6 5 6 5 3 4 5 5 6 8 8 15 21 20 17 14 12 9 7 7 6 6 7 7 11 11 14 14 14 14 14
2 3 4 9 2 3 3 4 4 3 3 4 3 8 5 6 4 2 4 4 4 5 6 7 16 22 22 19 16 13 10 8 7 8 8 7 8 9 9 11 11 11 11 12
5 2 4 6 3 2 4 5 5 3 3 10 4 6 2 5 5 4 5 4 5 7 9 3 10 17 21 20 17 15 12 10 10 8 4 2 4 6 6 8 8 9 10 11
5 4 7 7 7 4 8 10 7 9 5 9 18 22 16 15 12 3 2 5 6 7 8 4 5 11 19 19 18 16 14 11 7 2 3 2 5 2 5 7 8 9 10 10
4 6 6 12 12 11 17 20 16 13 18 14 26 15 19 5 4 2 4 6 7 7 7 5 3 6 14 18 17 17 13 9 7 5 4 3 1 4 4 7 9 8 9 10
3 5 2 5 12 16 20 21 20 19 19 17 22 26 2 4 2 3 3 6 6 7 9 9 5 13 17 20 18 14 9 5 3 2 2 2 1 3 4 6 8 10 10 9
6 4 2 7 2 6 13 16 17 5 6 7 10 2 3 4 5 4 5 5 6 7 7 8 6 9 12 14 14 10 6 1 1 1 1 1 3 4 6 8 9 10 11 10
6 5 3 5 2 8 6 2 5 9 2 2 5 4 3 2 3 3 5 4 4 5 6 7 9 11 13 12 10 6 1 2 2 1 1 2 5 7 8 9 10 11 11 11
15 8 5 4 6 12 11 4 4 6 4 1 5 1 1 4 3 2 3 2 4 4 7 8 8 9 8 6 3 2 3 2 1 1 2 4 7 9 9 9 10 10 12 12
2 11 8 4 5 7 2 2 1 3 5 5 1 2 3 5 5 1 1 3 5 5 4 5 6 6 5 3 2 2 2 3 3 4 5 7 8 8 8 7 10 11 11 10
3 3 13 14 9 6 1 4 0 3 1 3 1 1 2 1 1 1 5 4 5 4 3 4 5 6 4 3 3 3 2 3 3 5 7 8 8 8 7 10 9 9 10 10
8 6 4 4 6 8 2 2 4 2 3 2 1 2 1 4 4 4 5 4 4 4 5 5 5 4 3 3 2 3 2 4 5 7 8 8 8 8 7 7 8 8 8 10
4 6 3 7 4 1 3 2 4 1 3 2 2 2 3 5 3 5 3 4 6 6 4 3 3 1 0 2 3 4 4 5 7 8 8 8 7 6 5 8 7 7 9 11
2 3 3 2 5 5 4 3 3 3 3 3 1 2 3 1 3 4 3 5 6 5 4 2 1 1 2 4 4 5 5 7 8 8 8 7 6 7 8 7 7 8 11 12
4 5 5 4 2 5 2 2 3 4 3 4 3 2 4 2 2 3 2 5 5 3 1 2 2 5 3 6 7 7 7 7 8 8 8 6 8 8 9 9 10 10 10 11
1 1 2 1 3 3 2 4 3 3 2 3 3 2 5 4 3 5 4 4 3 2 3 3 5 6 7 8 8 7 7 8 9 8 6 9 9 9 12 11 13 8 10 11
Wind_Direction
18 60 29 296 323 222 247 232 265 265 231 338 252 277 287 248 203 180 188 189 191 184 166 84 19 10 19 25 28 30 33 35 34 38 36 27 28 37 37 34 30 29 23 15
29 36 268 293 349 236 306 302 296 295 273 295 299 288 344 31 219 181 188 196 198 182 194 192 7 9 17 19 25 27 30 38 40 52 49 53 56 47 45 41 34 29 26 26
130 246 296 19 16 7 318 243 278 257 315 234 326 324 318 10 42 136 207 185 191 200 207 203 301 8 11 22 24 26 29 34 40 49 70 76 68 64 54 51 49 46 46 47
195 339 355 342 60 81 311 210 280 294 35 296 29 290 303 240 254 232 225 209 209 204 198 194 202 340 15 24 28 32 34 37 43 47 56 63 60 49 42 52 52 55 53 51
276 349 3 348 280 140 245 329 288 245 147 36 333 67 267 329 273 256 229 220 223 211 201 200 196 195 61 24 30 34 36 44 46 51 57 62 63 63 54 49 50 51 52 49
283 331 130 260 298 235 307 347 55 48 88 18 252 110 281 224 221 268 26 216 217 214 209 203 197 190 183 136 39 33 39 48 49 55 60 62 63 59 56 51 47 45 45 44
333 299 323 15 335 19 15 23 352 1 7 231 256 7 245 250 245 249 271 244 218 200 194 189 185 192 194 188 146 59 50 53 51 57 60 60 60 61 60 52 49 42 39 36
20 332 16 358 90 298 338 109 125 292 286 285 322 235 253 215 222 250 274 272 205 213 206 199 196 196 194 187 172 147 110 84 63 60 61 60 59 59 57 54 49 44 39 33
15 281 287 49 46 97 331 55 172 205 292 347 258 284 277 215 260 253 255 213 228 225 210 204 202 200 190 186 185 176 157 131 105 83 73 66 63 56 54 52 50 46 38 33
180 295 238 247 75 24 165 170 356 33 309 290 287 280 243 218 237 226 256 243 248 240 228 202 200 200 194 189 182 178 174 152 129 109 91 75 61 59 47 48 43 42 37 32
158 159 284 8 197 193 12 289 188 139 159 238 298 262 218 200 184 180 281 338 314 267 242 213 201 204 197 187 182 174 170 155 136 120 106 90 73 65 45 41 34 29 28 25
186 169 264 246 286 242 210 210 151 139 247 232 190 267 285 197 109 74 68 46 356 326 302 227 194 190 188 187 179 173 163 154 138 124 109 86 48 31 15 27 19 15 18 22
182 229 310 333 4 288 217 196 194 223 185 226 243 257 121 108 117 97 85 354 334 327 325 245 178 180 182 183 175 167 160 148 141 145 140 96 62 34 31 15 4 11 17 21
149 208 192 226 234 198 257 248 217 226 238 260 236 266 268 267 298 99 333 329 330 330 326 264 201 177 177 179 170 158 151 164 177 175 97 30 61 53 18 4 8 9 6 8
173 235 231 249 264 265 266 268 253 232 242 239 272 257 264 273 170 221 326 328 342 340 337 305 224 164 169 169 163 158 153 147 146 141 127 119 353 28 13 16 4 357 358 359
204 261 229 263 250 255 264 264 259 249 249 249 257 269 20 112 55 323 342 349 348 338 334 334 173 158 166 166 156 153 158 175 244 196 200 236 310 11 7 357 352 346 354 358
185 209 173 275 194 304 277 251 240 200 219 210 225 244 71 31 1 348 345 7 352 349 0 23 44 106 119 127 152 151 157 243 203 191 168 357 3 3 358 347 338 343 351 353
184 176 182 273 11 267 242 245 191 205 193 80 98 94 88 14 347 86 34 31 1 5 15 31 65 83 102 126 137 145 149 155 177 211 352 354 359 347 339 335 335 341 347 348
221 198 228 231 215 285 296 264 170 171 220 137 141 143 296 339 263 158 59 57 51 63 60 68 88 107 109 105 114 146 142 140 126 101 7 356 346 331 327 334 336 342 340 343
175 231 209 181 228 240 226 160 97 140 262 154 98 23 2 347 335 223 85 91 80 88 110 99 91 93 93 79 99 124 104 85 73 2 342 338 326 321 326 329 334 336 340 341
166 196 219 232 244 261 104 139 281 139 298 144 162 64 344 214 194 104 143 107 118 121 108 92 104 107 93 79 95 88 75 69 357 337 321 312 317 325 322 320 333 338 338 342
177 187 210 225 246 264 31 107 190 89 118 119 108 145 297 299 307 166 143 150 143 121 98 109 111 99 66 44 67 51 7 343 326 313 316 318 319 325 319 331 335 338 342 346
244 200 190 204 223 101 15 51 88 101 109 73 307 289 272 272 262 155 153 149 127 111 95 94 120 136 30 4 356 340 317 313 316 318 321 322 325 331 337 329 337 338 338 336
220 154 211 206 189 184 167 113 158 107 114 124 247 309 310 336 104 125 149 134 127 126 124 142 153 305 316 311 297 303 303 307 313 315 322 325 327 331 330 329 327 324 327 324
204 156 189 245 129 99 106 132 139 110 111 125 84 35 360 104 96 128 131 134 141 168 230 277 301 297 273 300 301 305 297 303 310 311 316 314 323 321 322 319 318 317 316 307
269 337 204 269 36 47 96 111 114 136 116 78 110 51 32 62 101 122 125 150 179 226 277 286 293 293 295 298 298 298 296 303 304 304 302 318 316 311 312 316 322 321 315 311